Location: Fort Worth, Tx
(32.7431°N, 97.3695°W)
Time: 04:52:10
(UTC-04:00)

Vanguard 3 - Pass Details

Date: 25 February 2024
Orbit: 510 x 3234 km, 33.3° (Epoch: 24 April)

Event Time Altitude Azimuth Distance (km) Brightness Sun altitude
Rises 22:24:52 0° 250° (WSW) 6,784 12.5 -38.7°
Reaches altitude 10° 22:29:05 10° 250° (WSW) 5,953 12.0 -39.5°
Maximum altitude 22:49:01 84° 165° (SSE) 3,157 9.7 -43.5°
Enters shadow 22:50:46 78° 104° (ESE) 3,149 9.7 -43.8°
